| time (UTC) | temp C | wind direction | speed KPH | gust KPH | rain 1hr cm | rain 24hr cm | rain mn cm | humidity % | barometer mb |
| 20260507030029 | 15 | 360 | 0.0 | 8.0 | 0.00 | 0.25 | 0.25 | 96 | 1004.6 |
| 20260507024527 | 15 | 360 | 0.0 | 4.8 | 0.00 | 0.25 | 0.25 | 96 | 1004.5 |
| 20260507023033 | 15 | 360 | 0.0 | 3.2 | 0.00 | 0.25 | 0.25 | 96 | 1004.6 |
| 20260507021525 | 15 | 360 | 0.0 | 3.2 | 0.00 | 0.25 | 0.25 | 96 | 1004.6 |
| 20260507020026 | 15 | 360 | 0.0 | 0.0 | 0.00 | 0.25 | 0.25 | 96 | 1004.6 |
| 20260507014525 | 14 | 360 | 0.0 | 4.8 | 0.00 | 0.25 | 0.25 | 97 | 1004.6 |
| 20260507013024 | 14 | 360 | 0.0 | 3.2 | 0.00 | 0.25 | 0.25 | 97 | 1004.7 |
| 20260507011528 | 14 | 360 | 0.0 | 3.2 | 0.00 | 0.25 | 0.25 | 96 | 1005.0 |
| 20260507010026 | 14 | 360 | 0.0 | 1.6 | 0.00 | 0.25 | 0.25 | 96 | 1005.1 |
| 20260507004532 | 14 | 360 | 0.0 | 6.4 | 0.03 | 0.25 | 0.25 | 96 | 1005.1 |
| 20260507003022 | 14 | 360 | 0.0 | 4.8 | 0.05 | 0.25 | 0.25 | 96 | 1004.9 |
| 20260507001521 | 14 | 360 | 0.0 | 12.9 | 0.08 | 0.25 | 0.25 | 96 | 1004.8 |
| 20260507000020 | 14 | 360 | 0.0 | 6.4 | 0.10 | 0.25 | 0.25 | 95 | 1004.8 |
| 20260506234519 | 14 | 360 | 0.0 | 3.2 | 0.08 | 0.23 | 0.23 | 95 | 1004.7 |
| 20260506233018 | 15 | 360 | 0.0 | 4.8 | 0.05 | 0.20 | 0.20 | 94 | 1004.5 |
| 20260506231516 | 15 | 360 | 0.0 | 9.7 | 0.03 | 0.18 | 0.18 | 94 | 1004.6 |
| 20260506230039 | 15 | 360 | 0.0 | 4.8 | 0.00 | 0.15 | 0.15 | 94 | 1004.8 |
| 20260506224514 | 15 | 360 | 0.0 | 6.4 | 0.00 | 0.15 | 0.15 | 94 | 1004.7 |
| 20260506223014 | 15 | 360 | 1.6 | 4.8 | 0.03 | 0.15 | 0.15 | 94 | 1004.5 |
| 20260506221511 | 15 | 360 | 0.0 | 4.8 | 0.03 | 0.15 | 0.15 | 94 | 1004.8 |
| 20260506220025 | 15 | 51 | 0.0 | 4.8 | 0.05 | 0.15 | 0.15 | 94 | 1005.0 |
| 20260506214509 | 15 | 360 | 0.0 | 12.9 | 0.08 | 0.15 | 0.15 | 93 | 1004.8 |
| 20260506213107 | 16 | 360 | 1.6 | 8.0 | 0.08 | 0.13 | 0.13 | 92 | 1005.2 |
| 20260506211508 | 16 | 360 | 0.0 | 9.7 | 0.08 | 0.13 | 0.13 | 92 | 1005.4 |
| 20260506210011 | 16 | 360 | 3.2 | 17.7 | 0.05 | 0.10 | 0.10 | 91 | 1005.4 |
| 20260506204504 | 16 | 360 | 1.6 | 12.9 | 0.05 | 0.08 | 0.08 | 90 | 1005.5 |
| 20260506203003 | 16 | 360 | 1.6 | 17.7 | 0.03 | 0.05 | 0.05 | 89 | 1005.5 |
| 20260506201502 | 16 | 360 | 1.6 | 8.0 | 0.05 | 0.05 | 0.05 | 88 | 1005.5 |
| 20260506200002 | 17 | 360 | 3.2 | 9.7 | 0.05 | 0.05 | 0.05 | 87 | 1005.6 |
| 20260506194501 | 17 | 360 | 0.0 | 3.2 | 0.03 | 0.03 | 0.03 | 86 | 1005.5 |
| 20260506193101 | 17 | 360 | 0.0 | 6.4 | 0.03 | 0.03 | 0.03 | 83 | 1005.8 |
| 20260506191608 | 18 | 360 | 0.0 | 3.2 | 0.00 | 0.00 | 0.00 | 80 | 1005.8 |
| 20260506190059 | 19 | 243 | 0.0 | 20.9 | 0.00 | 0.00 | 0.00 | 75 | 1005.8 |
| 20260506184557 | 20 | 191 | 3.2 | 9.7 | 0.00 | 0.00 | 0.00 | 71 | 1005.7 |
| 20260506183106 | 20 | 208 | 3.2 | 11.3 | 0.00 | 0.00 | 0.00 | 69 | 1005.9 |
| 20260506181601 | 20 | 248 | 0.0 | 12.9 | 0.00 | 0.00 | 0.00 | 68 | 1006.0 |
| 20260506180113 | 21 | 205 | 1.6 | 8.0 | 0.00 | 0.00 | 0.00 | 66 | 1006.1 |
| 20260506174553 | 22 | 234 | 3.2 | 12.9 | 0.00 | 0.00 | 0.00 | 64 | 1006.3 |
| 20260506173119 | 22 | 231 | 8.0 | 32.2 | 0.00 | 0.00 | 0.00 | 62 | 1006.3 |
| 20260506171551 | 22 | 275 | 1.6 | 16.1 | 0.00 | 0.00 | 0.00 | 62 | 1006.4 |
| 20260506170051 | 22 | 213 | 3.2 | 20.9 | 0.00 | 0.00 | 0.00 | 63 | 1006.2 |
| 20260506164547 | 22 | 279 | 3.2 | 16.1 | 0.00 | 0.00 | 0.00 | 64 | 1006.6 |
| 20260506163047 | 22 | 213 | 1.6 | 14.5 | 0.00 | 0.00 | 0.00 | 66 | 1006.9 |
| 20260506161552 | 22 | 223 | 3.2 | 12.9 | 0.00 | 0.00 | 0.00 | 65 | 1007.0 |
| 20260506160042 | 22 | 194 | 4.8 | 12.9 | 0.00 | 0.00 | 0.00 | 65 | 1007.3 |
| 20260506154539 | 22 | 268 | 0.0 | 12.9 | 0.00 | 0.00 | 0.00 | 65 | 1007.5 |
| 20260506153038 | 22 | 189 | 0.0 | 11.3 | 0.00 | 0.00 | 0.00 | 66 | 1007.6 |
| 20260506151536 | 21 | 254 | 0.0 | 12.9 | 0.00 | 0.00 | 0.00 | 68 | 1007.8 |
| 20260506150034 | 22 | 286 | 0.0 | 8.0 | 0.00 | 0.00 | 0.00 | 66 | 1008.0 |
| 20260506144542 | 21 | 211 | 1.6 | 9.7 | 0.00 | 0.00 | 0.00 | 68 | 1007.9 |
| 20260506143032 | 21 | 221 | 1.6 | 6.4 | 0.00 | 0.00 | 0.00 | 68 | 1007.8 |
| 20260506141535 | 21 | 208 | 3.2 | 8.0 | 0.00 | 0.00 | 0.00 | 68 | 1007.7 |
| 20260506140025 | 20 | 222 | 1.6 | 14.5 | 0.00 | 0.00 | 0.00 | 71 | 1007.8 |
| 20260506134521 | 19 | 210 | 3.2 | 11.3 | 0.00 | 0.00 | 0.00 | 75 | 1007.8 |
| 20260506133019 | 18 | 215 | 1.6 | 9.7 | 0.00 | 0.00 | 0.00 | 76 | 1008.4 |
| 20260506131522 | 18 | 300 | 1.6 | 12.9 | 0.00 | 0.00 | 0.00 | 76 | 1008.6 |
| 20260506130018 | 18 | 257 | 3.2 | 16.1 | 0.00 | 0.00 | 0.00 | 78 | 1008.5 |
| 20260506124512 | 17 | 39 | 0.0 | 6.4 | 0.00 | 0.00 | 0.00 | 81 | 1008.6 |
| 20260506123014 | 17 | 360 | 0.0 | 6.4 | 0.00 | 0.00 | 0.00 | 82 | 1008.7 |
| 20260506121511 | 16 | 360 | 3.2 | 6.4 | 0.00 | 0.00 | 0.00 | 83 | 1008.5 |
| 20260506120021 | 16 | 360 | 1.6 | 6.4 | 0.00 | 0.00 | 0.00 | 85 | 1008.8 |
| 20260506114508 | 16 | 360 | 0.0 | 4.8 | 0.00 | 0.00 | 0.00 | 85 | 1009.0 |
| 20260506113008 | 15 | 360 | 1.6 | 6.4 | 0.00 | 0.00 | 0.00 | 86 | 1009.2 |
| 20260506111507 | 15 | 360 | 0.0 | 6.4 | 0.00 | 0.00 | 0.00 | 87 | 1009.1 |
| 20260506110007 | 15 | 360 | 0.0 | 4.8 | 0.00 | 0.00 | 0.00 | 87 | 1009.0 |
| 20260506104505 | 15 | 360 | 0.0 | 6.4 | 0.00 | 0.00 | 0.00 | 86 | 1009.0 |
| 20260506103005 | 15 | 360 | 1.6 | 6.4 | 0.00 | 0.00 | 0.00 | 86 | 1009.1 |
| 20260506101504 | 15 | 360 | 0.0 | 1.6 | 0.00 | 0.00 | 0.00 | 86 | 1009.0 |
| 20260506100004 | 15 | 360 | 1.6 | 6.4 | 0.00 | 0.00 | 0.00 | 86 | 1008.8 |
| 20260506094502 | 15 | 360 | 0.0 | 1.6 | 0.00 | 0.00 | 0.00 | 85 | 1008.6 |
| 20260506093001 | 15 | 360 | 0.0 | 3.2 | 0.00 | 0.00 | 0.00 | 85 | 1008.7 |
| 20260506091604 | 15 | 360 | 0.0 | 4.8 | 0.00 | 0.00 | 0.00 | 84 | 1008.7 |
| 20260506084600 | 15 | 360 | 0.0 | 6.4 | 0.00 | 0.00 | 0.00 | 84 | 1008.9 |
| 20260506083102 | 15 | 252 | 0.0 | 6.4 | 0.00 | 0.00 | 0.00 | 83 | 1009.0 |
| 20260506081556 | 16 | 263 | 1.6 | 4.8 | 0.00 | 0.00 | 0.00 | 82 | 1008.8 |
| 20260506080107 | 16 | 224 | 1.6 | 6.4 | 0.00 | 0.00 | 0.00 | 82 | 1008.8 |
| 20260506073104 | 16 | 223 | 1.6 | 11.3 | 0.00 | 0.00 | 0.00 | 80 | 1008.8 |
| 20260506071550 | 16 | 261 | 0.0 | 6.4 | 0.00 | 0.00 | 0.00 | 80 | 1008.8 |
| 20260506061544 | 17 | 234 | 3.2 | 6.4 | 0.00 | 0.00 | 0.00 | 76 | 1008.6 |
| 20260506044540 | 17 | 242 | 0.0 | 11.3 | 0.00 | 0.00 | 0.00 | 71 | 1009.1 |
| 20260506043033 | 17 | 248 | 1.6 | 9.7 | 0.00 | 0.00 | 0.00 | 70 | 1009.1 |
| 20260506041546 | 17 | 183 | 4.8 | 12.9 | 0.00 | 0.00 | 0.00 | 70 | 1009.1 |
| 20260506040033 | 17 | 321 | 0.0 | 16.1 | 0.00 | 0.00 | 0.00 | 69 | 1009.0 |
| 20260506034531 | 18 | 215 | 3.2 | 14.5 | 0.00 | 0.00 | 0.00 | 68 | 1008.9 |
| 20260506033027 | 18 | 360 | 4.8 | 14.5 | 0.00 | 0.00 | 0.00 | 68 | 1008.8 |
| 20260506031529 | 18 | 360 | 6.4 | 22.5 | 0.00 | 0.00 | 0.00 | 68 | 1008.9 |